Terminal Aerodrome Forecast
Issued by NWS

Home | Current Version | Previous Version | Text Only | Print | Product List | Glossary On
Versions: 1 2 3 4 5 6 7 8 9 10 11 12 13 14 15 16 17 18 19 20 21 22 23 24 25 26
000
FTPA31 PHFO 271100
TAFKOA
TAF
PHKO 271120Z 2712/2812 04006KT P6SM FEW030 FEW050
     FM271900 21011KT P6SM FEW030 SCT050
     FM280400 19009KT P6SM SCT030 BKN050
     FM280800 07006KT P6SM SCT060=

USA.gov is the U.S. government's official web portal to all federal, state and local government web resources and services.